Regional Weather Roundup
Issued by NWS

Home | Current Version | Previous Version | Graphics & Text | Print | Product List | Glossary On
Versions: 1 2 3 4 5 6 7 8 9 10 11 12 13 14 15 16 17 18 19 20 21 22 23 24 25 26 27 28 29 30 31 32 33 34 35 36 37 38 39 40 41 42 43 44 45 46 47 48 49 50
000
ASUS43 KOAX 070902
RWRNE

WEATHER ROUNDUP FOR NEBRASKA
NATIONAL WEATHER SERVICE OMAHA NE
400 AM CDT TUE JUL 07 2015

NOTES: SATELLITE DATA IS BEING USED TO AUGMENT CLOUD COVER ABOVE
       12000 FEET.
       "FAIR" INDICATES FEW OR NO CLOUDS BELOW 12,000 FEET WITH NO
       SIGNIFICANT WEATHER AND/OR OBSTRUCTIONS TO VISIBILITY.

  * THESE STATIONS DO NOT REPORT WEATHER SUCH AS RAIN...SNOW OR FOG.

NEZ001>004-019>022-054>056-071000-
NEBRASKA PANHANDLE

CITY           SKY/WX    TMP DP  RH WIND       PRES   REMARKS
SCOTTSBLUFF    CLOUDY    61  56  83 E6        30.21F HAZE
ALLIANCE       PTCLDY    54  52  93 SE3       30.22F FOG
CHADRON        CLOUDY    59  55  87 CALM      30.19F
KIMBALL          N/A    N/A N/A N/A MISG        N/A
SIDNEY         CLOUDY    60  53  77 SE8       30.24F
$$

NEZ057>060-069>072-079>082-071000-
SOUTHWEST NEBRASKA

CITY           SKY/WX    TMP DP  RH WIND       PRES   REMARKS
NORTH PLATTE   PTCLDY    54  52  93 CALM      30.21S
IMPERIAL       CLOUDY    60  53  77 E7        30.21F
LEXINGTON      CLEAR     53  51  94 N5        30.19F FOG
MCCOOK         MOCLDY    59  54  83 N5        30.19F HAZE
$$

NEZ005>010-023>029-035>040-094-071000-
NORTH CENTRAL NEBRASKA

CITY           SKY/WX    TMP DP  RH WIND       PRES   REMARKS
VALENTINE      CLEAR     53  52  96 W3        30.20S
AINSWORTH      CLEAR     56  55  96 W3        30.20S
BROKEN BOW     CLEAR     52  50  93 NW3       30.20R FOG
ORD            CLEAR     50  48  93 SW3       30.17R FOG
$$

NEZ041-046>049-061>064-073>077-083>087-071000-
SOUTH CENTRAL NEBRASKA

CITY           SKY/WX    TMP DP  RH WIND       PRES   REMARKS
GRAND ISLAND   CLEAR     55  53  93 N7        30.16S FOG
AURORA         CLEAR     57  57 100 N7        30.15S FOG
HASTINGS       CLEAR     58  55  90 N8        30.15S FOG
KEARNEY *      CLEAR     55  52  88 N7        30.17S
$$

NEZ011>018-030>034-042>045-071000-
NORTHEAST NEBRASKA

CITY           SKY/WX    TMP DP  RH WIND       PRES   REMARKS
NORFOLK        CLEAR     54  52  93 CALM      30.15R FOG
BLAIR          CLEAR     57  49  75 N8        30.10S
FREMONT        CLEAR     57  52  82 NW3       30.12S
TEKAMAH        CLEAR     55  53  93 N6        30.11S
$$

NEZ050>053-065>068-078-088>093-071000-
SOUTHEAST NEBRASKA

CITY           SKY/WX    TMP DP  RH WIND       PRES   REMARKS
LINCOLN        CLEAR     59  54  83 N9        30.11S
OMAHA EPPLEY   CLEAR     58  53  84 N9        30.09S
FALLS CITY     CLOUDY    64  58  80 N8        30.04R
PLATTSMOUTH    CLEAR     60  49  68 N5        30.08F
$$

NEZ044-045-051>053-067-071000-
OMAHA AREA

CITY           SKY/WX    TMP DP  RH WIND       PRES   REMARKS
OMAHA EPPLEY   CLEAR     58  53  84 N9        30.09S
BLAIR          CLEAR     57  49  75 N8        30.10S
FREMONT        CLEAR     57  52  82 NW3       30.12S
MILLARD        CLEAR     61  51  67 N5        30.09F
OFFUTT AFB     CLEAR     60  50  69 N9        30.07S
PLATTSMOUTH    CLEAR     60  49  68 N5        30.08F
$$



USA.gov is the U.S. government's official web portal to all federal, state and local government web resources and services.